User: anonymous   Login
Location: Fontevrault
(47.1823°N, 0.0493°E)
Time: 06:30:17
(UTC+00:00)
Language:

CZ-4B DEB - Orbit

View from above orbital plane
View from above orbital plane
View from above satellite
View from above satellite

Ground track
Ground track

The orbit data is extracted from the following two-line orbital elements,

1 37182U 10051D   21263.22667648  .00027302  00000-0  38516-3 0  9993
2 37182  97.2873 339.5117 0003717  95.3828 264.7851 15.56561517607638
Epoch (UTC): 20 September 2021 05:26:24
Eccentricity: 0.0003717
inclination: 97.2873°
perigee height: 395 km
apogee height: 400 km
right ascension of ascending node: 339.5117°
argument of perigee: 95.3828°
revolutions per day: 15.56561517
mean anomaly at epoch: 264.7851°
orbit number at epoch: 60763

The dashed part of the orbit path shows where the satellite is in the earth's shadow,  

DLR